Terminal Aerodrome Forecast
Issued by NWS Quad Cities IA IL

Home | Current Version | Previous Version | Text Only | Print | Product List | Glossary On
Versions: 1 2 3 4 5 6 7 8 9 10 11 12 13 14 15 16 17 18 19 20 21
000
FTUS43 KDVN 230500
TAFMLI
TAF
KMLI 230527Z 2306/2406 24008KT P6SM OVC017
     FM231400 23006KT 6SM BR SCT020
     FM231600 22010KT P6SM SCT200
     FM232200 23006KT P6SM OVC100=

USA.gov is the U.S. government's official web portal to all federal, state and local government web resources and services.